Zurück zum Katalog

STARLINK-38035

AktivKommunikationSSO
NORAD 69759·PAYLOAD·🇺🇸 United States

Gestartet Jul 2, 2026 von Vandenberg Space Force Base

Loading…

Nächste Überflüge (nächste 24 Stunden)

TLE

AktuellSource: CelesTrak SupGP

Epoche: Sep 15, 2026, 03:21 UTC

1 69759C 26150W   26258.14006944 -.00040882  00000+0 -12690-2 0  2582
2 69759  97.2850  97.1197 0001747  93.5397 237.1506 15.33460341    13

Verfolge STARLINK-38035 in Echtzeit mit AllMySat

Download on the App Store